FW5236 Weather Reports


Display with metric or nautical units.
time (UTC)temp
F
wind
direction
speed
MPH
gust
MPH
rain 1hr
in
rain 24hr
in
rain mn
in
humidity
%
barometer
mb
20260504001531 90 142 0.0 3.0 0.00 0.00 0.00 23 1012.1
20260503234530 88 151 0.0 4.0 0.00 0.00 0.00 23 1012.4
20260503233033 89 150 1.0 5.0 0.00 0.00 0.00 22 1012.6
20260503231530 88 132 1.0 3.0 0.00 0.00 0.00 23 1012.8
20260503230032 88 133 2.0 7.0 0.00 0.00 0.00 24 1013.1
20260503223032 87 156 2.0 7.0 0.00 0.00 0.00 25 1013.6
20260503221529 87 136 1.0 4.0 0.00 0.00 0.00 25 1013.8
20260503214529 85 157 1.0 4.0 0.00 0.00 0.00 25 1014.2
20260503213030 84 152 2.0 7.0 0.00 0.00 0.00 26 1014.4
20260503210105 85 155 1.0 4.0 0.00 0.00 0.00 27 1014.8
20260503204529 84 136 2.0 5.0 0.00 0.00 0.00 28 1015.0
20260503203031 83 158 1.0 5.0 0.00 0.00 0.00 30 1015.2
20260503201530 83 165 2.0 6.0 0.00 0.00 0.00 31 1015.4
20260503200032 84 153 1.0 7.0 0.00 0.00 0.00 30 1015.5
20260503193031 83 163 1.0 4.0 0.00 0.00 0.00 32 1015.9
20260503191530 83 165 1.0 6.0 0.00 0.00 0.00 31 1016.1
20260503190030 83 151 1.0 3.0 0.00 0.00 0.00 31 1016.2
20260503184605 83 142 1.0 4.0 0.00 0.00 0.00 32 1016.3
20260503183029 82 73 0.0 4.0 0.00 0.00 0.00 36 1016.4
20260503180031 82 42 0.0 3.0 0.00 0.00 0.00 36 1016.7
20260503174530 81 65 0.0 1.0 0.00 0.00 0.00 37 1016.8
20260503173040 78 67 0.0 1.0 0.00 0.00 0.00 43 1016.9
20260503171606 78 71 0.0 1.0 0.00 0.00 0.00 44 1016.9
20260503120105 52 236 2.0 4.0 0.00 0.00 0.00 73 1016.9
20260503081606 56 225 2.0 4.0 0.00 0.00 0.00 68 1016.6
20260503080104 57 230 2.0 4.0 0.00 0.00 0.00 68 1016.5
20260503071531 58 225 1.0 3.0 0.00 0.00 0.00 66 1016.6
20260503053028 62 225 0.0 2.0 0.00 0.00 0.00 57 1016.5
20260503050033 64 225 2.0 5.0 0.00 0.00 0.00 49 1016.4
20260503044530 65 248 1.0 4.0 0.00 0.00 0.00 48 1016.3
20260503043033 66 256 2.0 4.0 0.00 0.00 0.00 46 1016.3
20260503041529 65 300 2.0 6.0 0.00 0.00 0.00 51 1016.3
20260503040039 64 241 1.0 3.0 0.00 0.00 0.00 54 1016.2
20260503034528 66 230 1.0 4.0 0.00 0.00 0.00 51 1016.0
20260503033031 67 274 2.0 6.0 0.00 0.00 0.00 53 1015.7
20260503031529 67 176 1.0 3.0 0.00 0.00 0.00 57 1015.2
20260503030032 67 135 0.0 0.0 0.00 0.00 0.00 58 1014.8
20260503024528 68 135 0.0 0.0 0.00 0.00 0.00 59 1014.5
20260503023027 70 135 0.0 0.0 0.00 0.00 0.00 58 1014.4
20260503014529 79 135 0.0 0.0 0.00 0.00 0.00 40 1014.1
20260503013108 81 135 0.0 0.0 0.00 0.00 0.00 35 1014.0
20260503011532 83 145 0.0 1.0 0.00 0.00 0.00 31 1013.9